[[{"header":{"parameterUnit":"m.s-1","parameterCategory":1,"la1":30.2991,"la2":30.254,"lo1":-89.0895,"lo2":-89.0444,"dy":0.0017,"dx":0.0017,"nx":28,"ny":28,"refTime":"2025-07-23T09:00:00:Z","depth":0,"parameterNumber":2,"parameterNumberName":"U-component_of_WINDS"},"data":[0,0,0,0,0,0,0,0,0,0,0,0,0,0,0,0,0,0,0,0,0,0,0,0,0,0,0,0,0,0,0,0,0,0,0,0,0,0,0,0,0,0,0,0,0,0,0,0,0,0,0,0,0,0,0,0,0,0,-5.6854,-5.6855,0,-5.6917,-5.6917,-5.6918,-5.6867,-5.6864,-5.6862,-5.686,-5.6921,-5.6924,-5.6928,0,0,0,0,0,0,0,0,0,0,0,0,0,-5.6686,-5.6689,-5.6854,-5.6855,-5.6855,-5.6917,-5.6917,-5.6918,-5.6867,-5.6864,-5.6862,-5.6859,-5.692,-5.6924,-5.6928,0,0,0,0,0,0,0,0,0,0,0,0,0,-5.6754,-5.669,-5.6854,-5.6837,-5.6836,-5.6916,-5.6917,-5.6919,-5.6867,-5.6864,-5.6861,-5.6858,-5.6918,-5.6924,-5.6929,-5.7027,0,0,-5.6946,-5.6948,0,0,0,0,0,0,0,0,-5.6751,-5.6761,-5.6839,-5.6838,-5.6838,-5.6881,-5.688,-5.6955,-5.6868,-5.6856,-5.686,-5.6856,-5.691,-5.6916,-5.6935,-5.703,-5.7033,-5.6946,-5.6949,-5.6952,-5.6953,0,0,0,0,0,0,0,-5.6746,-5.6758,-5.6878,-5.684,-5.6839,-5.6825,-5.6832,-5.6894,-5.69,-5.6856,-5.6853,-5.6861,-5.6909,-5.6929,-5.6936,-5.7034,-5.6946,-5.6951,-5.6954,-5.6956,-5.7211,-5.7214,0,0,0,0,0,0,-5.6743,-5.6754,-5.6876,-5.688,-5.6785,-5.6831,-5.6838,-5.687,-5.6899,-5.6901,-5.6864,-5.6859,-5.6922,-5.6929,-5.6938,-5.7052,-5.6952,-5.6957,-5.696,-5.7208,-5.7212,-5.7216,0,0,0,0,0,0,-5.674,-5.6755,-5.6874,-5.6816,-5.683,-5.6838,-5.6874,-5.6873,-5.6893,-5.6905,-5.6905,-5.6884,-5.6919,-5.693,-5.7005,-5.7054,-5.6959,-5.6964,-5.7203,-5.7209,-5.7214,-5.7284,0,0,0,0,0,0,-5.6735,-5.6754,-5.6792,-5.6818,-5.6834,-5.6942,-5.6877,-5.6876,-5.6903,-5.6897,-5.6924,-5.6925,-5.6918,-5.6997,-5.7011,-5.7059,-5.6968,-5.7199,-5.7206,-5.7212,-5.7277,-5.7291,-5.7303,0,0,0,0,0,-5.6729,-5.6809,-5.6794,-5.6809,-5.6882,-5.6945,-5.6954,-5.6945,-5.6908,-5.6945,-5.6953,-5.6924,-5.7047,-5.7006,-5.702,-5.7071,-5.7196,-5.7204,-5.7212,-5.7271,-5.7288,-5.7302,0,0,0,0,0,0,-5.6787,-5.6812,-5.6796,-5.6886,-5.6914,-5.6936,-5.6983,-5.6963,-5.7001,-5.6993,-5.6979,-5.6986,-5.7064,-5.7076,-5.7029,-5.7167,-5.7115,-5.7126,-5.7156,-5.7172,-5.7184,-5.7178,-5.6973,0,0,0,0,0,-5.6811,-5.6861,-5.688,-5.6958,-5.6972,-5.6976,-5.7003,-5.6994,-5.7021,-5.7032,-5.7045,-5.7072,-5.7116,-5.7145,-5.7187,-5.728,-5.7283,-5.7322,-5.7335,-5.7346,-5.7354,-5.7401,-5.7418,-5.7241,-5.7241,-5.7241,0,0,-5.6859,-5.6879,-5.6911,-5.697,-5.699,-5.704,-5.6986,-5.7042,-5.7078,-5.704,-5.7111,-5.7122,-5.7151,-5.7235,-5.7273,-5.7247,-5.7404,-5.7356,-5.7364,-5.7366,-5.7411,-5.7428,-5.7443,-5.7247,-5.7246,-5.7245,0,0,-5.6973,-5.6994,-5.706,-5.7082,-5.7114,-5.7116,-5.7132,-5.7158,-5.7163,-5.7235,-5.7207,-5.725,-5.7328,-5.7349,-5.737,-5.7492,-5.7466,-5.7507,-5.7571,-5.7618,-5.7631,-5.7644,-5.7684,-5.7699,-5.7516,-5.7516,-5.7516,0,-5.7028,-5.7104,-5.7096,-5.7154,-5.718,-5.715,-5.7215,-5.7237,-5.728,-5.7298,-5.7269,-5.7365,-5.7383,-5.747,-5.75,-5.7519,-5.7535,-5.7501,-5.763,-5.7643,-5.7654,-5.7692,-5.7707,-5.752,-5.752,-5.752,-5.7519,0,-5.7169,-5.7223,-5.7272,-5.7316,-5.7347,-5.7409,-5.7409,-5.7442,-5.7431,-5.7435,-5.7508,-5.7528,-5.7572,-5.7594,-5.7583,-5.7679,-5.7662,-5.7633,-5.7579,-5.7675,-5.771,-5.7725,-5.7527,-5.7525,-5.7524,-5.7523,0,0,-5.7317,-5.7357,-5.7375,-5.7393,-5.7427,-5.7467,-5.7528,-5.7572,-5.7599,-5.7631,-5.7679,-5.7746,-5.7719,-5.7743,-5.7735,-5.7776,-5.7868,-5.7741,-5.7742,-5.7761,-5.7971,-5.799,-5.8007,-5.7853,-5.7856,-5.7858,-5.7967,0,-5.7429,-5.7534,-5.7529,-5.7626,-5.7674,-5.7647,-5.7699,-5.7724,-5.7731,-5.7771,-5.7778,-5.7824,-5.7787,-5.7801,-5.7841,-5.7848,-5.7909,-5.7841,-5.7894,-5.7896,-5.7883,-5.8026,-5.8046,-5.8148,-5.7982,-5.7984,-5.7986,0,-5.7573,-5.761,-5.7712,-5.7738,-5.7758,-5.7804,-5.7844,-5.7884,-5.7912,-5.7914,-5.7941,-5.7927,-5.7985,-5.7935,-5.8014,-5.7968,-5.799,-5.7997,-5.8001,-5.8002,-5.7944,-5.8027,-5.8181,-5.8195,-5.8008,-5.8006,-5.8005,0,-5.7665,-5.7742,-5.7812,-5.783,-5.7862,-5.7895,-5.791,-5.7936,-5.7962,-5.7997,-5.8014,-5.8056,-5.8077,-5.8109,-5.8105,-5.8069,-5.8185,-5.8134,-5.8185,-5.8185,-5.8207,-5.8205,-5.8362,-5.8229,-5.8229,-5.8228,-5.8228,0,-5.7788,-5.7851,-5.7854,-5.7897,-5.7966,-5.796,-5.8028,-5.8039,-5.8062,-5.8105,-5.8086,-5.8127,-5.8121,-5.8162,-5.816,-5.8224,-5.8235,-5.8236,-5.8234,-5.8235,-5.8235,-5.8246,-5.8237,-5.8232,-5.8231,-5.8231,-5.823,0,-5.7902,-5.7907,-5.7981,-5.8007,-5.8015,-5.8064,-5.8085,-5.8125,-5.8131,-5.8186,-5.8198,-5.8206,-5.8253,-5.8254,-5.8308,-5.8306,-5.8384,-5.8376,-5.8374,-5.8371,-5.842,-5.8414,-5.8587,-5.8608,-5.8465,-5.8466,-5.8467,0,-5.7977,-5.8025,-5.8056,-5.8084,-5.8101,-5.8147,-5.8175,-5.8171,-5.82,-5.8236,-5.8271,-5.8317,-5.8352,-5.8428,-5.8438,-5.8479,-5.8469,-5.8527,-5.8474,-5.8474,-5.8465,-5.846,-5.8463,-5.8535,-5.8537,-5.8538,-5.8539,0,-5.811,-5.811,-5.8151,-5.8193,-5.8227,-5.826,-5.829,-5.8314,-5.8314,-5.8347,-5.8395,-5.8423,-5.8478,-5.8522,-5.8562,-5.8576,-5.8557,-5.8557,-5.857,-5.8569,-5.8565,-5.8564,-5.8397,-5.8551,-5.855,-5.8549,-5.8549,-5.8548,-5.8204,-5.8244,-5.8272,-5.8318,-5.8341,-5.837,-5.8408,-5.8419,-5.8459,-5.8504,-5.85,-5.8553,-5.8579,-5.863,-5.8648,-5.8688,-5.8667,-5.8688,-5.8692,-5.8696,-5.8699,-5.8563,-5.8696,-5.8695,-5.8695,-5.8695,-5.8695,0,-5.8332,-5.8349,-5.8392,-5.8435,-5.8471,-5.8453,-5.8486,-5.8516,-5.8563,-5.859,-5.8626,-5.868,-5.8723,-5.8738,-5.8779,-5.8808,-5.88,-5.8819,-5.8814,-5.8817,-5.8717,-5.87,-5.8824,-5.8824,-5.8824,-5.8824,-5.8824,-5.8824,-5.8403,-5.8469,-5.8473,-5.855,-5.8566,-5.8618,-5.8638,-5.8664,-5.8685,-5.8747,-5.8783,-5.8793,-5.8814,-5.8857,-5.8895,-5.8898,-5.8912,-5.8933,-5.8932,-5.8838,-5.8824,-5.8812,-5.8795,-5.8938,-5.8938,-5.9028,-5.9029,-5.903]},{"header":{"parameterUnit":"m.s-1","parameterCategory":1,"la1":30.2991,"la2":30.254,"lo1":-89.0895,"lo2":-89.0444,"dy":0.0017,"dx":0.0017,"nx":28,"ny":28,"refTime":"2025-07-23T09:00:00:Z","depth":0,"parameterNumber":3,"parameterNumberName":"V-component_of_WINDS"},"data":[0,0,0,0,0,0,0,0,0,0,0,0,0,0,0,0,0,0,0,0,0,0,0,0,0,0,0,0,0,0,0,0,0,0,0,0,0,0,0,0,0,0,0,0,0,0,0,0,0,0,0,0,0,0,0,0,0,0,6.8176,6.8176,0,6.8193,6.8193,6.8194,6.8066,6.8062,6.8059,6.8056,6.8069,6.8073,6.8077,0,0,0,0,0,0,0,0,0,0,0,0,0,6.8029,6.8033,6.8176,6.8176,6.8176,6.8193,6.8193,6.8194,6.8067,6.8062,6.8058,6.8054,6.8068,6.8073,6.8077,0,0,0,0,0,0,0,0,0,0,0,0,0,6.8074,6.8034,6.8176,6.8115,6.811,6.8193,6.8193,6.8194,6.8068,6.8062,6.8057,6.8052,6.8067,6.8072,6.8078,6.8219,0,0,6.8094,6.8097,0,0,0,0,0,0,0,0,6.8072,6.808,6.8124,6.812,6.8114,6.8122,6.8147,6.8202,6.8069,6.8084,6.8055,6.8049,6.8091,6.8094,6.8109,6.8219,6.822,6.8095,6.8098,6.8101,6.8102,0,0,0,0,0,0,0,6.8069,6.8078,6.8183,6.8125,6.8119,6.8086,6.8086,6.8156,6.8117,6.8082,6.8073,6.8077,6.8087,6.8104,6.8108,6.822,6.8095,6.81,6.8103,6.8105,6.8446,6.8451,0,0,0,0,0,0,6.8075,6.8077,6.8182,6.8183,6.8079,6.8093,6.8093,6.8125,6.8116,6.8109,6.8081,6.8071,6.8097,6.8102,6.8108,6.8271,6.8101,6.8106,6.8109,6.844,6.8447,6.8453,0,0,0,0,0,0,6.8072,6.8085,6.8181,6.8127,6.8137,6.8101,6.8137,6.8128,6.8144,6.8115,6.8107,6.8106,6.8093,6.8101,6.8192,6.827,6.8108,6.8113,6.8433,6.8442,6.845,6.86,0,0,0,0,0,0,6.8068,6.8085,6.8139,6.813,6.8141,6.8266,6.8142,6.8132,6.8155,6.8141,6.8136,6.813,6.809,6.8185,6.8198,6.8275,6.8118,6.8426,6.8437,6.8447,6.8588,6.8612,6.8634,0,0,0,0,0,6.8064,6.818,6.8143,6.8156,6.8208,6.8271,6.8277,6.8229,6.8162,6.8215,6.8196,6.8131,6.8261,6.8195,6.8209,6.8289,6.8421,6.8434,6.8447,6.8577,6.8608,6.8633,0,0,0,0,0,0,6.8198,6.8177,6.8136,6.8253,6.8265,6.8249,6.8315,6.8263,6.8293,6.8278,6.8216,6.8216,6.8318,6.8313,6.824,6.8424,6.8329,6.8345,6.8423,6.8452,6.8475,6.8472,6.8122,0,0,0,0,0,6.8241,6.8296,6.8275,6.838,6.8389,6.8352,6.8377,6.8339,6.8348,6.8352,6.834,6.8351,6.8393,6.8423,6.8461,6.8588,6.8583,6.8649,6.8672,6.8691,6.8705,6.877,6.8799,6.8495,6.8495,6.8495,0,0,6.8331,6.8327,6.8365,6.8407,6.8412,6.8468,6.8356,6.8421,6.8461,6.8361,6.8447,6.8439,6.8446,6.8556,6.8604,6.8555,6.8789,6.8708,6.8723,6.8726,6.8786,6.8815,6.8841,6.8504,6.8503,6.8501,0,0,6.8522,6.8526,6.8613,6.8621,6.863,6.8605,6.8627,6.862,6.8611,6.8696,6.8622,6.867,6.8745,6.8753,6.8767,6.8964,6.8904,6.8979,6.9097,6.9162,6.9185,6.9206,6.9274,6.93,6.8993,6.8993,6.8994,0,6.8632,6.8715,6.8665,6.8734,6.8754,6.8669,6.8756,6.8766,6.8787,6.8802,6.8748,6.8841,6.884,6.8949,6.8998,6.9013,6.9034,6.8977,6.9187,6.9207,6.9225,6.929,6.9316,6.9002,6.9001,6.9,6.8999,0,6.8849,6.8908,6.8977,6.9001,6.9029,6.9108,6.9067,6.9102,6.9063,6.9043,6.913,6.9127,6.9162,6.9186,6.9147,6.929,6.9259,6.9198,6.9099,6.9264,6.9323,6.9348,6.9015,6.9012,6.9009,6.9007,0,0,6.9122,6.9119,6.9145,6.9154,6.9159,6.9203,6.9277,6.9313,6.9343,6.9361,6.942,6.9487,6.943,6.9446,6.9408,6.9465,6.9619,6.9395,6.9394,6.9435,6.9774,6.9819,6.9848,6.9581,6.9585,6.9589,6.9772,0,6.9308,6.9435,6.9392,6.952,6.9573,6.9494,6.9558,6.9568,6.9552,6.9594,6.9575,6.9623,6.9545,6.9554,6.9607,6.9589,6.9686,6.9576,6.9633,6.9636,6.9631,6.9879,6.9927,7.01,6.9796,6.9799,6.9802,0,6.954,6.9569,6.9703,6.9699,6.9719,6.9778,6.9807,6.9849,6.9858,6.9842,6.9862,6.9812,6.9883,6.9788,6.9884,6.981,6.9832,6.9827,6.9832,6.9833,6.9727,6.9885,7.0155,7.018,6.9839,6.9836,6.9833,0,6.9723,6.9796,6.9885,6.9896,6.9894,6.9937,6.9938,6.9941,6.9966,6.9992,7.0006,7.004,7.0058,7.0085,7.0045,6.998,7.0146,7.0048,7.0134,7.0135,7.0169,7.0167,7.0444,7.0189,7.0188,7.0188,7.0187,0,6.9933,7.0017,6.9967,7.0022,7.0114,7.0064,7.0157,7.0149,7.0153,7.0204,7.0138,7.0187,7.0132,7.0176,7.0145,7.0229,7.0238,7.0226,7.0216,7.023,7.0232,7.0241,7.0227,7.0195,7.0193,7.0192,7.0191,0,7.0151,7.0122,7.0213,7.0205,7.0205,7.0273,7.0265,7.0314,7.0295,7.036,7.0372,7.0341,7.0389,7.0353,7.04,7.0379,7.0489,7.0463,7.0486,7.0478,7.0564,7.0556,7.0855,7.089,7.0615,7.0617,7.062,0,7.0286,7.0349,7.0348,7.0378,7.0384,7.0433,7.0458,7.0412,7.044,7.0456,7.0503,7.0546,7.0577,7.0657,7.0638,7.0674,7.0647,7.0749,7.0651,7.0664,7.0645,7.0641,7.0646,7.0768,7.0771,7.0774,7.0776,0,7.0526,7.0509,7.0548,7.0583,7.0615,7.064,7.0659,7.0687,7.064,7.0675,7.0724,7.0749,7.0798,7.084,7.0869,7.0868,7.0814,7.0808,7.0829,7.0842,7.0852,7.0846,7.0537,7.08,7.0798,7.0796,7.0795,7.0794,7.0705,7.0758,7.0765,7.0811,7.0821,7.0841,7.0887,7.0874,7.0914,7.0951,7.0922,7.098,7.0987,7.102,7.1027,7.1071,7.1028,7.106,7.1067,7.1075,7.1086,7.0848,7.1076,7.1075,7.1075,7.1074,7.1074,0,7.094,7.0942,7.0985,7.1014,7.1051,7.0999,7.1018,7.1051,7.1103,7.1115,7.1148,7.1204,7.1246,7.1231,7.1267,7.1305,7.1281,7.1316,7.1311,7.1311,7.1123,7.11,7.1335,7.1335,7.1334,7.1334,7.1334,7.1334,7.1067,7.1152,7.1136,7.1226,7.1226,7.1284,7.1299,7.1316,7.1325,7.1391,7.1426,7.1416,7.1417,7.1453,7.1489,7.1483,7.1498,7.1542,7.1527,7.1351,7.1325,7.13,7.1278,7.1546,7.1547,7.1712,7.1713,7.1714]}]]